H1 CPF 2 NER 2025 7 14 9 195 01 glonass138 H2 1805301 9138 43508 2025 7 14 0 0 0 2025 7 17 23 45 0 900 1 1 0 0 0 1 H9 10 0 60870 0.00000 0 23229091.949 -8977878.974 -5463401.720 10 0 60870 900.00000 0 22382431.203 -8718904.098 -8545337.395 10 0 60870 1800.00000 0 21247341.370 -8197340.122 -11461021.175 10 0 60870 2700.00000 0 19877313.686 -7386707.987 -14153730.239 10 0 60870 3600.00000 0 18332121.694 -6272365.443 -16571091.288 10 0 60870 4500.00000 0 16675295.608 -4852386.033 -18666103.439 10 0 60870 5400.00000 0 14971458.986 -3137902.983 -20398054.295 10 0 60870 6300.00000 0 13283640.230 -1152902.541 -21733311.275 10 0 60870 7200.00000 0 11670672.192 1066525.399 -22645972.989 10 0 60870 8100.00000 0 10184788.982 3473448.671 -23118368.411 10 0 60870 9000.00000 0 8869520.415 6011814.038 -23141394.711 10 0 60870 9900.00000 0 7757971.717 8618556.829 -22714687.787 10 0 60870 10800.00000 0 6871559.571 11226011.497 -21846622.812 10 0 60870 11700.00000 0 6219256.268 13764523.131 -20554145.284 10 0 60870 12600.00000 0 5797372.326 16165151.666 -18862436.286 10 0 60870 13500.00000 0 5589885.251 18362356.719 -16804418.689 10 0 60870 14400.00000 0 5569299.277 20296551.885 -14420114.023 10 0 60870 15300.00000 0 5697998.676 21916422.685 -11755862.545 10 0 60870 16200.00000 0 5930036.586 23180912.271 -8863421.628 10 0 60870 17100.00000 0 6213283.068 24060792.784 -5798959.915 10 0 60870 18000.00000 0 6491841.100 24539757.537 -2621966.800 10 0 60870 18900.00000 0 6708627.991 24614989.184 605901.600 10 0 60870 19800.00000 0 6808012.823 24297180.938 3822017.559 10 0 60870 20700.00000 0 6738398.223 23610010.715 6963994.666 10 0 60870 21600.00000 0 6454637.206 22589090.924 9970895.032 10 0 60870 22500.00000 0 5920182.794 21280438.469 12784407.458 10 0 60870 23400.00000 0 5108879.412 19738529.437 15349973.864 10 0 60870 24300.00000 0 4006320.125 18024020.124 17617842.459 10 0 60870 25200.00000 0 2610711.916 16201229.768 19544027.703 10 0 60870 26100.00000 0 933211.800 14335489.998 21091158.939 10 0 60870 27000.00000 0 -1002281.511 12490471.410 22229201.843 10 0 60870 27900.00000 0 -3159873.017 10725598.271 22936039.256 10 0 60870 28800.00000 0 -5492924.366 9093658.704 23197900.531 10 0 60870 29700.00000 0 -7945763.692 7638709.310 23009631.324 10 0 60870 30600.00000 0 -10455782.853 6394361.061 22374798.561 10 0 60870 31500.00000 0 -12955836.336 5382517.446 21305628.252 10 0 60870 32400.00000 0 -15376843.433 4612617.133 19822776.790 10 0 60870 33300.00000 0 -17650486.572 4081412.495 17954939.355 10 0 60870 34200.00000 0 -19711894.239 3773293.096 15738302.113 10 0 60870 35100.00000 0 -21502197.148 3661140.417 13215847.849 10 0 60870 36000.00000 0 -22970851.118 3707677.813 10436527.603 10 0 60870 36900.00000 0 -24077629.398 3867258.690 7454313.733 10 0 60870 37800.00000 0 -24794200.652 4088017.217 4327152.343 10 0 60870 38700.00000 0 -25105225.951 4314290.261 1115835.342 10 0 60870 39600.00000 0 -25008928.188 4489207.449 -2117185.679 10 0 60870 40500.00000 0 -24517109.566 4557338.801 -5309020.097 10 0 60870 41400.00000 0 -23654616.172 4467286.722 -8397568.952 10 0 60870 42300.00000 0 -22458272.139 4174111.323 -11322740.748 10 0 60870 43200.00000 0 -20975328.482 3641485.044 -14027627.778 10 0 60870 44100.00000 0 -19261492.254 2843484.105 -16459619.250 10 0 60870 45000.00000 0 -17378619.521 1765939.791 -18571428.886 10 0 60870 45900.00000 0 -15392169.609 407291.397 -20322016.624 10 0 60870 46800.00000 0 -13368528.059 -1221096.139 -21677386.424 10 0 60870 47700.00000 0 -11372310.866 -3095164.137 -22611244.802 10 0 60870 48600.00000 0 -9463763.040 -5178932.615 -23105507.729 10 0 60870 49500.00000 0 -7696360.102 -7425781.533 -23150646.567 10 0 60870 50400.00000 0 -6114712.291 -9780187.766 -22745866.952 10 0 60870 51300.00000 0 -4752858.199 -12179845.683 -21899117.740 10 0 60870 52200.00000 0 -3633017.952 -14558083.325 -20626930.361 10 0 60870 53100.00000 0 -2764856.700 -16846473.783 -18954092.115 10 0 60870 54000.00000 0 -2145287.645 -18977533.356 -16913160.001 10 0 60870 54900.00000 0 -1758821.269 -20887394.449 -14543824.646 10 0 60870 55800.00000 0 -1578444.525 -22518342.180 -11892136.750 10 0 60870 56700.00000 0 -1566991.602 -23821109.356 -9009611.032 10 0 60870 57600.00000 0 -1678947.336 -24756834.502 -5952225.029 10 0 60870 58500.00000 0 -1862606.208 -25298601.649 -2779332.207 10 0 60870 59400.00000 0 -2062495.062 -25432498.054 447489.511 10 0 60870 60300.00000 0 -2221956.632 -25158146.147 3665631.432 10 0 60870 61200.00000 0 -2285784.337 -24488687.950 6812666.728 10 0 60870 62100.00000 0 -2202796.702 -23450223.130 9827558.503 10 0 60870 63000.00000 0 -1928242.472 -22080724.570 12651839.942 10 0 60870 63900.00000 0 -1425934.608 -20428477.141 15230743.783 10 0 60870 64800.00000 0 -670022.890 -18550105.058 17514259.553 10 0 60870 65700.00000 0 353670.041 -16508270.210 19458098.513 10 0 60870 66600.00000 0 1646806.037 -14369137.307 21024548.118 10 0 60870 67500.00000 0 3198218.532 -12199711.176 22183200.033 10 0 60870 68400.00000 0 4984143.634 -10065156.568 22911538.114 10 0 60870 69300.00000 0 6968986.988 -8026211.473 23195375.405 10 0 60870 70200.00000 0 9106595.909 -6136800.871 23029131.906 10 0 60870 71100.00000 0 11341985.395 -4441949.512 22415947.705 10 0 60870 72000.00000 0 13613447.646 -2976079.979 21367629.004 10 0 60870 72900.00000 0 15854958.702 -1761766.336 19904427.511 10 0 60870 73800.00000 0 17998783.140 -808994.859 18054656.683 10 0 60870 74700.00000 0 19978169.175 -114962.343 15854151.336 10 0 60870 75600.00000 0 21730022.281 335579.916 13345580.147 10 0 60870 76500.00000 0 23197445.826 569451.171 10577623.470 10 0 60870 77400.00000 0 24332042.292 623672.409 7604031.743 10 0 60870 78300.00000 0 25095878.217 543661.722 4482582.353 10 0 60870 79200.00000 0 25463029.814 381070.516 1273955.086 10 0 60870 80100.00000 0 25420643.588 191352.701 -1959451.674 10 0 60870 81000.00000 0 24969466.680 31170.591 -5154740.464 10 0 60870 81900.00000 0 24123824.028 -44251.621 -8249745.486 10 0 60870 82800.00000 0 22911042.928 16286.490 -11184249.647 10 0 60870 83700.00000 0 21370349.049 257547.549 -13901163.338 10 0 60870 84600.00000 0 19551280.422 715717.428 -16347641.137 10 0 60870 85500.00000 0 17511686.313 1416633.062 -18476114.057 10 0 60871 0.00000 0 15315395.610 2374452.878 -20245216.728 10 0 60871 900.00000 0 13029651.650 3590827.478 -21620592.243 10 0 60871 1800.00000 0 10722424.249 5054605.003 -22575556.896 10 0 60871 2700.00000 0 8459707.573 6742085.927 -23091615.431 10 0 60871 3600.00000 0 6302919.515 8617815.975 -23158814.875 10 0 60871 4500.00000 0 4306509.608 10635884.860 -22775931.717 10 0 60871 5400.00000 0 2515874.676 12741676.808 -21950489.205 10 0 60871 6300.00000 0 965668.094 14874000.084 -20698604.976 10 0 60871 7200.00000 0 -321428.110 16967506.850 -19044672.361 10 0 60871 8100.00000 0 -1335418.652 18955302.649 -17020881.832 10 0 60871 9000.00000 0 -2079169.646 20771636.861 -14666592.000 10 0 60871 9900.00000 0 -2568036.969 22354562.078 -12027562.452 10 0 60871 10800.00000 0 -2828965.575 23648451.567 -9155063.283 10 0 60871 11700.00000 0 -2899099.171 24606269.953 -6104878.582 10 0 60871 12600.00000 0 -2823960.063 25191502.384 -2936223.219 10 0 60871 13500.00000 0 -2655277.008 25379661.811 289406.015 10 0 60871 14400.00000 0 -2448553.523 25159311.533 3509422.583 10 0 60871 15300.00000 0 -2260479.968 24532560.506 6661362.481 10 0 60871 16200.00000 0 -2146299.109 23515010.894 9684093.089 10 0 60871 17100.00000 0 -2157236.713 22135160.231 12518995.223 10 0 60871 18000.00000 0 -2338105.851 20433283.286 15111095.601 10 0 60871 18900.00000 0 -2725186.185 18459840.332 17410128.077 10 0 60871 19800.00000 0 -3344467.880 16273478.061 19371503.545 10 0 60871 20700.00000 0 -4210334.510 13938706.219 20957170.178 10 0 60871 21600.00000 0 -5324740.933 11523346.233 22136347.943 10 0 60871 22500.00000 0 -6676921.546 9095857.392 22886123.712 10 0 60871 23400.00000 0 -8243642.260 6722651.029 23191895.820 10 0 60871 24300.00000 0 -9989987.028 4465503.561 23047659.751 10 0 60871 25200.00000 0 -11870647.517 2379175.024 22456129.376 10 0 60871 26100.00000 0 -13831663.631 509331.366 21428691.134 10 0 60871 27000.00000 0 -15812543.681 -1109143.830 19985191.482 10 0 60871 27900.00000 0 -17748677.054 -2453378.521 18153560.967 10 0 60871 28800.00000 0 -19573939.610 -3513231.504 15969281.278 10 0 60871 29700.00000 0 -21223383.668 -4291472.281 13474704.672 10 0 60871 30600.00000 0 -22635900.336 -4803414.333 10718238.034 10 0 60871 31500.00000 0 -23756742.596 -5076017.600 7753406.750 10 0 60871 32400.00000 0 -24539802.905 -5146498.377 4637816.104 10 0 60871 33300.00000 0 -24949548.989 -5060505.726 1432030.236 10 0 60871 34200.00000 0 -24962535.560 -4869942.108 -1801609.267 10 0 60871 35100.00000 0 -24568427.453 -4630521.190 -5000201.680 10 0 60871 36000.00000 0 -23770490.220 -4399167.172 -8101517.859 10 0 60871 36900.00000 0 -22585526.806 -4231366.886 -11045218.501 10 0 60871 37800.00000 0 -21043262.450 -4178587.957 -13774035.290 10 0 60871 38700.00000 0 -19185203.405 -4285873.546 -16234891.114 10 0 60871 39600.00000 0 -17063017.358 -4589716.563 -18379936.878 10 0 60871 40500.00000 0 -14736503.682 -5116304.212 -20167484.331 10 0 60871 41400.00000 0 -12271238.723 -5880207.870 -21562816.685 10 0 60871 42300.00000 0 -9735994.934 -6883574.236 -22538861.375 10 0 60871 43200.00000 0 -7200041.785 -8115852.365 -23076712.289 10 0 60871 44100.00000 0 -4730440.987 -9554068.517 -23165991.865 10 0 60871 45000.00000 0 -2389448.518 -11163637.612 -22805046.596 10 0 60871 45900.00000 0 -232131.037 -12899677.544 -22000972.770 10 0 60871 46800.00000 0 1695704.976 -14708771.553 -20769472.445 10 0 60871 47700.00000 0 3359186.252 -16531105.094 -19134542.858 10 0 60871 48600.00000 0 4735579.707 -18302887.977 -17128005.577 10 0 60871 49500.00000 0 5814984.619 -19958960.684 -14788884.653 10 0 60871 50400.00000 0 6600482.844 -21435475.947 -12162645.917 10 0 60871 51300.00000 0 7107742.550 -22672543.572 -9300312.165 10 0 60871 52200.00000 0 7364093.805 -23616727.917 -6257471.376 10 0 60871 53100.00000 0 7407116.380 -24223293.538 -3093197.233 10 0 60871 54000.00000 0 7282800.543 -24458105.050 131097.079 10 0 60871 54900.00000 0 7043359.425 -24299101.659 3352849.536 10 0 60871 55800.00000 0 6744786.049 -23737284.620 6509561.162 10 0 60871 56700.00000 0 6444258.722 -22777176.274 9540005.659 10 0 60871 57600.00000 0 6197504.683 -21436731.373 12385413.354 10 0 60871 58500.00000 0 6056233.481 -19746704.277 14990606.635 10 0 60871 59400.00000 0 6065748.516 -17749498.244 17305065.197 10 0 60871 60300.00000 0 6262837.483 -15497544.442 19283900.853 10 0 60871 61200.00000 0 6674030.784 -13051277.830 20888723.552 10 0 60871 62100.00000 0 7314301.436 -10476793.500 22088382.378 10 0 60871 63000.00000 0 8186261.661 -7843280.217 22859567.765 10 0 60871 63900.00000 0 9279890.622 -5220336.943 23187263.642 10 0 60871 64800.00000 0 10572805.718 -2675282.856 23065041.038 10 0 60871 65700.00000 0 12031067.328 -270571.582 22495187.449 10 0 60871 66600.00000 0 13610484.646 1938583.838 21488669.196 10 0 60871 67500.00000 0 15258369.383 3906277.443 20064926.957 10 0 60871 68400.00000 0 16915665.286 5597583.068 18251507.679 10 0 60871 69300.00000 0 18519365.438 6989764.187 16083539.071 10 0 60871 70200.00000 0 20005116.977 8072970.953 13603055.930 10 0 60871 71100.00000 0 21309904.481 8850395.692 10858190.442 10 0 60871 72000.00000 0 22374699.524 9337880.767 7902241.487 10 0 60871 72900.00000 0 23146964.752 9562995.717 4792640.547 10 0 60871 73800.00000 0 23582906.560 9563623.038 1589834.179 10 0 60871 74700.00000 0 23649380.627 9386112.870 -1643894.990 10 0 60871 75600.00000 0 23325369.019 9083085.329 -4845645.300 10 0 60871 76500.00000 0 22602965.535 8710974.317 -7953126.713 10 0 60871 77400.00000 0 21487826.779 8327417.791 -10905880.192 10 0 60871 78300.00000 0 19999069.115 7988606.073 -13646461.165 10 0 60871 79200.00000 0 18168615.205 7746701.544 -16121563.201 10 0 60871 80100.00000 0 16040017.164 7647439.937 -18283059.353 10 0 60871 81000.00000 0 13666805.550 7728015.542 -20088940.486 10 0 60871 81900.00000 0 11110433.279 8015340.437 -21504132.252 10 0 60871 82800.00000 0 8437900.533 8524751.704 -22501174.912 10 0 60871 83700.00000 0 5719159.882 9259221.532 -23060753.196 10 0 60871 84600.00000 0 3024409.694 10209103.671 -23172066.419 10 0 60871 85500.00000 0 421388.408 11352427.042 -22833032.257 10 0 60872 0.00000 0 -2027218.071 12655724.085 -22050320.938 10 0 60872 900.00000 0 -4266149.998 14075359.857 -20839219.179 10 0 60872 1800.00000 0 -6249627.491 15559304.382 -19223328.085 10 0 60872 2700.00000 0 -7943004.453 17049276.299 -17234099.751 10 0 60872 3600.00000 0 -9323952.031 18483166.299 -14910222.631 10 0 60872 4500.00000 0 -10383125.182 19797639.479 -12296867.335 10 0 60872 5400.00000 0 -11124286.022 20930807.414 -9444807.520 10 0 60872 6300.00000 0 -11563880.518 21824857.958 -6409432.901 10 0 60872 7200.00000 0 -11730087.890 22428532.390 -3249673.562 10 0 60872 8100.00000 0 -11661384.161 22699345.974 -26856.449 10 0 60872 9000.00000 0 -11404681.529 22605458.647 3196483.700 10 0 60872 9900.00000 0 -11013122.972 22127117.248 6357815.833 10 0 60872 10800.00000 0 -10543625.798 21257608.607 9395822.935 10 0 60872 11700.00000 0 -10054278.225 20003683.310 12251587.823 10 0 60872 12600.00000 0 -9601699.095 18385432.074 14869731.534 10 0 60872 13500.00000 0 -9238472.134 16435619.446 17199482.492 10 0 60872 14400.00000 0 -9010762.869 14198502.106 19195656.218 10 0 60872 15300.00000 0 -8956218.537 11728180.379 20819527.051 10 0 60872 16200.00000 0 -9102239.347 9086550.778 22039575.592 10 0 60872 17100.00000 0 -9464693.926 6340943.788 22832097.953 10 0 60872 18000.00000 0 -10047133.231 3561544.047 23181665.426 10 0 60872 18900.00000 0 -10840536.519 818698.921 23081425.941 10 0 60872 19800.00000 0 -11823600.836 -1819773.925 22533241.502 10 0 60872 20700.00000 0 -12963562.911 -4291169.210 21547658.662 10 0 60872 21600.00000 0 -14217520.161 -6540260.702 20143712.109 10 0 60872 22500.00000 0 -15534196.593 -8521354.329 18348564.389 10 0 60872 23400.00000 0 -16856080.666 -10199942.917 16196987.858 10 0 60872 24300.00000 0 -18121846.222 -11553894.148 13730697.950 10 0 60872 25200.00000 0 -19268955.475 -12574122.530 10997549.772 10 0 60872 26100.00000 0 -20236334.786 -13264717.614 8050612.914 10 0 60872 27000.00000 0 -20967010.485 -13642523.459 4947141.960 10 0 60872 27900.00000 0 -21410593.166 -13736187.448 1747462.557 10 0 60872 28800.00000 0 -21525504.908 -13584719.048 -1486205.107 10 0 60872 29700.00000 0 -21280854.360 -13235619.998 -4690962.011 10 0 60872 30600.00000 0 -20657879.456 -12742665.728 -7804460.824 10 0 60872 31500.00000 0 -19650895.665 -12163432.742 -10766126.357 10 0 60872 32400.00000 0 -18267708.728 -11556677.608 -13518341.266 10 0 60872 33300.00000 0 -16529473.540 -10979679.422 -16007573.111 10 0 60872 34200.00000 0 -14470004.372 -10485659.145 -18185420.113 10 0 60872 35100.00000 0 -12134564.901 -10121385.685 -20009554.880 10 0 60872 36000.00000 0 -9578188.386 -9925070.502 -21444547.617 10 0 60872 36900.00000 0 -6863598.112 -9924639.974 -22462552.914 10 0 60872 37800.00000 0 -4058814.780 -10136458.578 -23043847.173 10 0 60872 38700.00000 0 -1234550.453 -10564556.646 -23177206.732 10 0 60872 39600.00000 0 1538502.693 -11200395.080 -22860119.940 10 0 60872 40500.00000 0 4192376.412 -12023176.675 -22098829.669 10 0 60872 41400.00000 0 6664411.473 -13000690.740 -20908205.946 10 0 60872 42300.00000 0 8899617.100 -14090655.267 -19311451.575 10 0 60872 43200.00000 0 10852707.757 -15242500.064 -17339646.746 10 0 60872 44100.00000 0 12489733.769 -16399515.843 -15031141.585 10 0 60872 45000.00000 0 13789239.282 -17501278.828 -12430808.513 10 0 60872 45900.00000 0 14742900.805 -18486248.963 -9589168.904 10 0 60872 46800.00000 0 15355621.261 -19294432.462 -6561410.950 10 0 60872 47700.00000 0 15645077.205 -19869996.680 -3406317.830 10 0 60872 48600.00000 0 15640739.714 -20163727.288 -185126.997 10 0 60872 49500.00000 0 15382411.404 -20135224.311 3039657.234 10 0 60872 50400.00000 0 14918342.266 -19754744.496 6205474.652 10 0 60872 51300.00000 0 14303004.501 -19004612.376 9250920.158 10 0 60872 52200.00000 0 13594620.721 -17880140.404 12116931.353 10 0 60872 53100.00000 0 12852550.007 -16390019.138 14747929.815 10 0 60872 54000.00000 0 12134642.071 -14556160.509 17092894.212 10 0 60872 54900.00000 0 11494670.867 -12413000.029 19106344.876 10 0 60872 55800.00000 0 10979955.508 -10006286.185 20749221.242 10 0 60872 56700.00000 0 10629268.309 -7391406.497 21989635.765 10 0 60872 57600.00000 0 10471117.704 -4631318.740 22803490.221 10 0 60872 58500.00000 0 10522478.131 -1794172.178 23174942.929 10 0 60872 59400.00000 0 10788020.302 1049283.702 23096718.106 10 0 60872 60300.00000 0 11259874.555 3828396.656 22570251.402 10 0 60872 61200.00000 0 11917937.780 6475304.536 21605668.548 10 0 60872 62100.00000 0 12730711.827 8927512.851 20221597.014 10 0 60872 63000.00000 0 13656639.102 11130250.827 18444813.593 10 0 60872 63900.00000 0 14645880.154 13038508.672 16309733.827 10 0 60872 64800.00000 0 15642459.358 14618671.727 13857752.226 10 0 60872 65700.00000 0 16586689.045 15849683.679 11136445.151 10 0 60872 66600.00000 0 17417770.309 16723690.465 8198651.127 10 0 60872 67500.00000 0 18076460.814 17246138.133 5101445.955 10 0 60872 68400.00000 0 18507696.678 17435320.845 1905032.376 10 0 60872 69300.00000 0 18663056.982 17321398.385 -1328433.943 10 0 60872 70200.00000 0 18502965.793 16944925.116 -4536058.748 10 0 60872 71100.00000 0 17998537.504 16354953.113 -7655439.544 10 0 60872 72000.00000 0 17132986.243 15606790.406 -10625887.070 10 0 60872 72900.00000 0 15902538.608 14759509.981 -13389613.203 10 0 60872 73800.00000 0 14316810.075 13873315.754 -15892861.363 10 0 60872 74700.00000 0 12398628.227 13006877.743 -18086956.690 10 0 60872 75600.00000 0 10183309.398 12214749.747 -19929255.164 10 0 60872 76500.00000 0 7717418.474 11544979.120 -21383973.060 10 0 60872 77400.00000 0 5057063.302 11037009.759 -22422880.704 10 0 60872 78300.00000 0 2265794.660 10719966.753 -23025847.447 10 0 60872 79200.00000 0 -587800.937 10611394.750 -23181227.737 10 0 60872 80100.00000 0 -3432715.615 10716502.734 -22886081.426 10 0 60872 81000.00000 0 -6198233.320 11027946.470 -22146224.618 10 0 60872 81900.00000 0 -8816629.561 11526157.171 -20976110.587 10 0 60872 82800.00000 0 -11225746.154 12180201.975 -19398543.520 10 0 60872 83700.00000 0 -13371334.819 12949139.526 -17444230.874 10 0 60872 84600.00000 0 -15209073.225 13783813.195 -15151183.199 10 0 60872 85500.00000 0 -16706170.688 14629006.147 -12563973.115 10 0 60873 0.00000 0 -17842497.871 15425867.205 -9732868.070 10 0 60873 900.00000 0 -18611195.255 16114505.622 -6712852.106 10 0 60873 1800.00000 0 -19018734.922 16636644.229 -3562559.475 10 0 60873 2700.00000 0 -19084436.516 16938220.486 -343135.765 10 0 60873 3600.00000 0 -18839457.353 16971824.615 2882947.583 10 0 60873 4500.00000 0 -18325300.963 16698872.341 6053103.721 10 0 60873 5400.00000 0 -17591907.555 16091420.432 9105842.026 10 0 60873 6300.00000 0 -16695407.473 15133548.278 11981957.491 10 0 60873 7200.00000 0 -15695632.580 13822246.978 14625674.852 10 0 60873 8100.00000 0 -14653490.483 12167777.970 16985725.595 10 0 60873 9000.00000 0 -13628311.989 10193485.353 19016337.346 10 0 60873 9900.00000 0 -12675283.055 7935068.804 20678116.988 10 0 60873 10800.00000 0 -11843068.790 5439346.272 21938810.952 10 0 60873 11700.00000 0 -11171728.841 2762556.716 22773928.545 10 0 60873 12600.00000 0 -10691011.300 -31727.834 23167216.652 10 0 60873 13500.00000 0 -10419096.451 -2874995.569 23110976.947 10 0 60873 14400.00000 0 -10361842.948 -5696395.566 22606219.484 10 0 60873 15300.00000 0 -10512568.204 -8425439.172 21662649.476 10 0 60873 16200.00000 0 -10852372.525 -10994691.135 20298487.021 10 0 60873 17100.00000 0 -11350993.884 -13342339.700 18540122.526 10 0 60873 18000.00000 0 -11968158.026 -15414539.502 16421613.609 10 0 60873 18900.00000 0 -12655367.721 -17167430.276 13984032.300 10 0 60873 19800.00000 0 -13358056.334 -18568747.474 11274674.256 10 0 60873 20700.00000 0 -14018015.236 -19598957.676 8346144.633 10 0 60873 21600.00000 0 -14575992.645 -20251871.316 5255337.859 10 0 60873 22500.00000 0 -14974353.831 -20534707.134 2062330.937 10 0 60873 23400.00000 0 -15159689.603 -20467605.765 -1170788.000 10 0 60873 24300.00000 0 -15085261.839 -20082613.263 -4381132.635 10 0 60873 25200.00000 0 -14713181.472 -19422177.844 -7506248.596 10 0 60873 26100.00000 0 -14016225.546 -18537223.893 -10485335.909 10 0 60873 27000.00000 0 -12979215.185 -17484885.337 -13260439.054 10 0 60873 27900.00000 0 -11599895.054 -16325994.854 -15777580.630 10 0 60873 28800.00000 0 -9889275.990 -15122435.809 -17987815.851 10 0 60873 29700.00000 0 -7871425.424 -13934469.315 -19848186.933 10 0 60873 30600.00000 0 -5582713.472 -12818149.694 -21322558.682 10 0 60873 31500.00000 0 -3070545.671 -11822937.518 -22382319.111 10 0 60873 32400.00000 0 -391634.806 -10989610.724 -23006931.865 10 0 60873 33300.00000 0 2390116.497 -10348561.359 -23184330.226 10 0 60873 34200.00000 0 5206034.499 -9918549.053 -22911145.635 10 0 60873 35100.00000 0 7985294.173 -9705962.822 -22192766.908 10 0 60873 36000.00000 0 10657631.632 -9704621.350 -21043229.508 10 0 60873 36900.00000 0 13156036.943 -9896119.198 -19484937.428 10 0 60873 37800.00000 0 15419316.070 -10250703.473 -17548223.357 10 0 60873 38700.00000 0 17394416.232 -10728643.279 -15270755.802 10 0 60873 39600.00000 0 19038418.781 -11282033.581 -12696804.713 10 0 60873 40500.00000 0 20320117.643 -11856956.948 -9876379.862 10 0 60873 41400.00000 0 21221118.610 -12395911.659 -6864258.641 10 0 60873 42300.00000 0 21736414.730 -12840403.401 -3718922.160 10 0 60873 43200.00000 0 21874414.945 -13133591.036 -501420.319 10 0 60873 44100.00000 0 21656425.949 -13222874.540 2725812.094 10 0 60873 45000.00000 0 21115610.067 -13062315.753 5900165.178 10 0 60873 45900.00000 0 20295463.815 -12614789.581 8960066.083 10 0 60873 46800.00000 0 19247881.797 -11853774.647 11846170.055 10 0 60873 47700.00000 0 18030887.747 -10764707.584 14502507.376 10 0 60873 48600.00000 0 16706128.299 -9345843.368 16877564.209 10 0 60873 49500.00000 0 15336234.695 -7608584.822 18925276.824 10 0 60873 50400.00000 0 13982162.984 -5577266.455 20605920.379 10 0 60873 51300.00000 0 12700623.843 -3288400.500 21886875.657 10 0 60873 52200.00000 0 11541709.259 -789415.235 22743259.416 10 0 60873 53100.00000 0 10546814.953 1863063.315 23158406.644 10 0 60873 54000.00000 0 9746945.052 4605316.331 23124195.636 10 0 60873 54900.00000 0 9161469.569 7368937.906 22641209.690 10 0 60873 55800.00000 0 8797386.504 10083442.971 21718732.060 10 0 60873 56700.00000 0 8649119.392 12678970.435 20374573.784 10 0 60873 57600.00000 0 8698858.890 15088970.311 18634736.995 10 0 60873 58500.00000 0 8917434.287 17252763.849 16532919.349 10 0 60873 59400.00000 0 9265678.588 19117870.664 14109868.235 10 0 60873 60300.00000 0 9696230.011 20642006.052 11412596.356 10 0 60873 61200.00000 0 10155694.094 21794665.149 8493473.171 10 0 60873 62100.00000 0 10587075.145 22558227.529 5409209.349 10 0 60873 63000.00000 0 10932374.010 22928535.833 2219753.750 10 0 60873 63900.00000 0 11135241.694 22914924.003 -1012875.426 10 0 60873 64800.00000 0 11143575.715 22539693.972 -4225802.136 10 0 60873 65700.00000 0 10911948.164 21837063.038 -7356522.358 10 0 60873 66600.00000 0 10403761.470 20851626.670 -10344127.467 10 0 60873 67500.00000 0 9593039.320 19636402.118 -13130496.409 10 0 60873 68400.00000 0 8465775.690 18250535.997 -15661432.612 10 0 60873 69300.00000 0 7020783.776 16756773.245 -17887722.811 10 0 60873 70200.00000 0 5270007.890 15218794.758 -19766096.723 10 0 60873 71100.00000 0 3238284.175 13698536.364 -21260068.778 10 0 60873 72000.00000 0 962559.370 12253602.219 -22340645.619 10 0 60873 72900.00000 0 -1509400.372 10934881.393 -22986885.965 10 0 60873 73800.00000 0 -4120757.213 9784467.433 -23186302.499 10 0 60873 74700.00000 0 -6807733.438 8833967.650 -22935098.557 10 0 60873 75600.00000 0 -9502038.989 8103272.167 -22238235.638 10 0 60873 76500.00000 0 -12133494.096 7599833.319 -21109330.960 10 0 60873 77400.00000 0 -14632738.409 7318484.414 -19570387.460 10 0 60873 78300.00000 0 -16933914.455 7241804.234 -17651361.776 10 0 60873 79200.00000 0 -18977214.448 7341010.754 -15389578.701 10 0 60873 80100.00000 0 -20711185.080 7577345.411 -12829003.550 10 0 60873 81000.00000 0 -22094695.072 7903888.699 -10019386.493 10 0 60873 81900.00000 0 -23098484.267 8267729.834 -7015295.439 10 0 60873 82800.00000 0 -23706230.459 8612398.352 -3875056.217 10 0 60873 83700.00000 0 -23915090.303 8880454.585 -659620.623 10 0 60873 84600.00000 0 -23735692.597 9016129.275 2568615.619 10 0 60873 85500.00000 0 -23191585.105 8967900.558 5747021.980 99